Weather History for Culdrose, United Kingdom

Change the Weather History Date:

Sunday, April 7, 2013

  Actual Average Record
Temperature  
Mean Temperature 39 °F -  
Max Temperature 46 °F 52 °F 64 °F (2011)
Min Temperature 32 °F 43 °F 32 °F (2008)
Degree Days  
Heating Degree Days 26    
Moisture  
Dew Point 31 °F    
Average Humidity 66    
Maximum Humidity 87    
Minimum Humidity 40    
Precipitation  
Precipitation 0.24 in - - ()
Sea Level Pressure  
Sea Level Pressure 29.96 in    
Wind  
Wind Speed 15 mph ()    
Max Wind Speed 23 mph    
Max Gust Speed 38 mph    
Visibility 5.7 miles    
Events Rain    
Averages and records for this station are not official NWS values.
T = Trace of Precipitation, MM = Missing Value Source: Averaged Metar Reports

Daily Weather History Graph

Daily Weather History Graph

Search for Another Location

Airport:

Trip Planner

Search our weather history database for the weather conditions in past years. The results will help you decide how hot, cold, wet, or windy it might be!

Date:

Astronomy

Apr. 07, 2013 Rise Set
Actual Time 6:44 AM BST 8:02 PM BST
Civil Twilight 6:11 AM BST 8:36 PM BST
Nautical Twilight 5:30 AM BST 9:16 PM BST
Astronomical Twilight 4:47 AM BST 10:00 PM BST
Moon 5:10 AM BST (4/7) 5:06 PM BST (4/7)
Length of Visible Light 14h 24m
Length of Day
13h 18m
Waning Crescent, 9% of the Moon is Illuminated
Apr 7
Waning Crescent
Apr 10
New
Apr 18
First Quarter
Apr 25
Full
May 2
Last Quarter

Hourly Weather History & Observations

Time (BST) Temp. Windchill Dew Point Humidity Pressure Visibility Wind Dir Wind Speed Gust Speed Precip Events Conditions
12:50 AM 32 °F - 28 °F 81% 30.26 in 9 mi SE 10.4 mph - -   Haze
12:50 AM 32.0 °F 23.6 °F 28.4 °F 87% 30.24 in - SE 10.4 mph - N/A   Clear
1:50 AM 33.8 °F 25.3 °F 30.2 °F 87% 30.18 in - SE 11.5 mph - N/A   Clear
2:50 AM 39.2 °F 32.0 °F 30.2 °F 70% 30.15 in 6.2 mi SE 11.5 mph - N/A   Scattered Clouds
3:50 AM 40 °F - 31 °F 59% 30.17 in 12 mi SE 11.5 mph - -   Partly Cloudy
3:50 AM 41.0 °F 34.3 °F 30.2 °F 65% 30.15 in 6.2 mi SE 11.5 mph - N/A   Scattered Clouds
4:50 AM 41.0 °F 34.3 °F 30.2 °F 65% 30.12 in 6.2 mi SE 11.5 mph - N/A   Mostly Cloudy
5:50 AM 41.0 °F 32.8 °F 30.2 °F 65% 30.09 in 6.2 mi SSE 16.1 mph - N/A   Mostly Cloudy
6:50 AM 40 °F - 29 °F 54% 30.09 in 12 mi SE 16.1 mph - -   Partly Cloudy
6:50 AM 41.0 °F 32.8 °F 28.4 °F 61% 30.06 in 6.2 mi SE 16.1 mph - N/A   Mostly Cloudy
7:50 AM 41.0 °F 32.2 °F 30.2 °F 65% 30.06 in 6.2 mi SSE 18.4 mph 31.1 mph N/A   Haze
8:50 AM 41.0 °F 31.6 °F 28.4 °F 61% 30.04 in 6.2 mi SSE 20.7 mph 32.2 mph N/A   Haze
9:50 AM 42 °F - 30 °F 51% 30.06 in 9 mi SE 18.4 mph - -   Haze
9:50 AM 42.8 °F 34.5 °F 30.2 °F 61% 30.04 in 6.2 mi SE 18.4 mph 31.1 mph N/A   Haze
10:50 AM 42.8 °F 34.0 °F 32.0 °F 66% 30.01 in 6.2 mi SSE 20.7 mph 32.2 mph N/A   Haze
11:50 AM 42.8 °F 33.8 °F 32.0 °F 66% 29.98 in 6.2 mi SSE 21.9 mph 33.4 mph N/A   Haze
12:50 PM 44 °F - 30 °F 46% 29.96 in 6 mi SE 21.9 mph - -   Haze
12:50 PM 44.6 °F 36.1 °F 30.2 °F 57% 29.95 in 6.2 mi SE 21.9 mph 34.5 mph N/A   Haze
1:50 PM 44.6 °F 36.1 °F 30.2 °F 57% 29.92 in 6.2 mi SE 21.9 mph 33.4 mph N/A   Haze
2:50 PM 44.6 °F 36.1 °F 28.4 °F 53% 29.89 in 6.2 mi SE 21.9 mph 36.8 mph N/A   Haze
3:50 PM 44 °F - 28 °F 40% 29.89 in 7 mi SE 20.7 mph - -   Haze
3:50 PM 44.6 °F 36.4 °F 28.4 °F 53% 29.86 in 6.2 mi SE 20.7 mph 34.5 mph N/A   Haze
4:50 PM 44.6 °F 35.9 °F 30.2 °F 57% 29.83 in 5.0 mi SE 23.0 mph 35.7 mph N/A   Haze
5:50 PM 44.6 °F 36.1 °F 33.8 °F 66% 29.80 in 4.3 mi ESE 21.9 mph 35.7 mph N/A   Haze
6:50 PM 44 °F - 35 °F 61% 29.79 in 3 mi ESE 23.0 mph - - Rain Light Rain
6:50 PM 42.8 °F 33.5 °F 35.6 °F 76% 29.77 in 3.1 mi ESE 23.0 mph 36.8 mph N/A Rain Light Rain
7:50 PM 42.8 °F 34.0 °F 35.6 °F 76% 29.74 in 2.5 mi ESE 20.7 mph 35.7 mph N/A Rain Light Rain
8:50 PM 42.8 °F 34.0 °F 35.6 °F 76% 29.74 in 2.5 mi SE 20.7 mph 33.4 mph N/A Rain Light Rain
9:50 PM 42 °F - 36 °F 71% 29.74 in 2 mi SE 19.6 mph - - Rain Light Rain
9:50 PM 42.8 °F 34.3 °F 35.6 °F 76% 29.71 in 2.5 mi SE 19.6 mph 38.0 mph N/A Rain Light Rain
10:50 PM 42.8 °F 34.8 °F 37.4 °F 81% 29.71 in 1.9 mi SE 17.3 mph 33.4 mph N/A Rain Light Rain
11:50 PM 41.0 °F 32.5 °F 37.4 °F 87% 29.68 in 1.9 mi SE 17.3 mph 28.8 mph N/A Rain Light Rain